[[{"header":{"parameterUnit":"m.s-1","parameterCategory":1,"la1":30.2992,"la2":30.254,"lo1":-89.0895,"lo2":-89.0443,"dy":0.0025,"dx":0.0025,"nx":19,"ny":19,"refTime":"2026-04-25T09:00:00:Z","depth":0,"parameterNumber":2,"parameterNumberName":"U-component_of_WINDS"},"data":[0,0,0,-1.7062,-1.7063,-1.7106,-1.7106,-1.7165,-1.7166,0,0,0,0,0,0,0,0,0,0,0,-1.705,-1.7051,-1.7062,-1.7063,-1.7106,-1.7106,-1.7165,-1.7166,0,0,0,0,0,0,0,0,0,0,0,-1.705,-1.7051,-1.7051,-1.7063,-1.7106,-1.7106,-1.7165,-1.7131,0,0,0,0,0,0,0,0,0,0,-1.7089,-1.7079,-1.7051,-1.7051,-1.7063,-1.7106,-1.7106,-1.713,-1.7134,-1.7147,0,-1.7159,0,-1.7163,-1.717,-1.717,0,0,0,-1.7062,-1.7076,-1.7087,-1.7051,-1.7064,-1.7106,-1.7086,-1.7132,-1.7136,-1.7152,-1.716,-1.7162,-1.7164,-1.717,-1.7171,-1.725,-1.7251,0,0,-1.706,-1.7059,-1.7084,-1.7089,-1.7082,-1.7085,-1.7087,-1.7134,-1.7143,-1.716,-1.7163,-1.7165,-1.7171,-1.7171,-1.725,-1.725,0,0,0,-1.7053,-1.7058,-1.7066,-1.7087,-1.7094,-1.7086,-1.7089,-1.7141,-1.7144,-1.7164,-1.7166,-1.7171,-1.7172,-1.7249,-1.725,-1.7269,0,0,0,-1.7052,-1.7054,-1.7065,-1.7066,-1.7093,-1.7118,-1.7094,-1.714,-1.7146,-1.7166,-1.7171,-1.7173,-1.7249,-1.725,-1.7267,-1.7278,0,0,0,-1.7047,-1.7053,-1.706,-1.7065,-1.7084,-1.7117,-1.7123,-1.7141,-1.7147,-1.717,-1.7173,-1.7249,-1.725,-1.7266,-1.7276,-1.7299,0,0,0,-1.7042,-1.7076,-1.706,-1.7099,-1.7083,-1.7128,-1.7122,-1.7156,-1.7178,-1.7172,-1.7249,-1.725,-1.7266,-1.7275,-1.7298,-1.7318,-1.7327,0,0,-1.7085,-1.7082,-1.7105,-1.7091,-1.7138,-1.7121,-1.7172,-1.7194,-1.7197,-1.7233,-1.7235,-1.7268,-1.7276,-1.7299,-1.7374,-1.7381,0,0,0,-1.7118,-1.7135,-1.7147,-1.7168,-1.7185,-1.72,-1.7214,-1.7222,-1.7252,-1.7215,-1.7282,-1.7287,-1.7301,-1.7311,-1.7316,-1.7328,-1.7254,-1.7254,-1.7254,-1.7178,-1.718,-1.7219,-1.7226,-1.7246,-1.726,-1.7277,-1.729,-1.7287,-1.7303,-1.7313,-1.7358,-1.737,-1.7374,-1.7387,-1.7324,-1.7324,-1.7324,-1.7324,-1.7242,-1.7266,-1.726,-1.7295,-1.7297,-1.7327,-1.7342,-1.7339,-1.7368,-1.7351,-1.7363,-1.7343,-1.7382,-1.7392,-1.7326,-1.7326,-1.7325,-1.7325,-1.7325,-1.7282,-1.7293,-1.7302,-1.7332,-1.7355,-1.7362,-1.739,-1.7391,-1.7393,-1.7404,-1.7416,-1.7416,-1.7416,-1.741,-1.741,-1.741,-1.741,-1.741,-1.741,-1.732,-1.7329,-1.7351,-1.7372,-1.7385,-1.7404,-1.7418,-1.7432,-1.7448,-1.7446,-1.7447,-1.7442,-1.7385,-1.737,-1.7413,-1.7412,-1.7412,-1.7412,-1.7412,-1.7384,-1.737,-1.7405,-1.7418,-1.7443,-1.7466,-1.7467,-1.7495,-1.7507,-1.7521,-1.7513,-1.7471,-1.7468,-1.7463,-1.7451,-1.7512,-1.7512,-1.7512,-1.7512,-1.7418,-1.7416,-1.7452,-1.7474,-1.7495,-1.7499,-1.7541,-1.7552,-1.7563,-1.757,-1.7562,-1.7546,-1.7541,-1.7541,-1.7535,-1.7524,-1.7602,-1.7602,-1.7602,-1.7458,-1.7458,-1.7492,-1.75,-1.752,-1.7537,-1.7575,-1.7602,-1.761,-1.7606,-1.7576,-1.7573,-1.7548,-1.7539,-1.7534,-1.7525,-1.7505,0,0]},{"header":{"parameterUnit":"m.s-1","parameterCategory":1,"la1":30.2992,"la2":30.254,"lo1":-89.0895,"lo2":-89.0443,"dy":0.0025,"dx":0.0025,"nx":19,"ny":19,"refTime":"2026-04-25T09:00:00:Z","depth":0,"parameterNumber":3,"parameterNumberName":"V-component_of_WINDS"},"data":[0,0,0,4.2,4.2002,4.2072,4.2072,4.2166,4.2167,0,0,0,0,0,0,0,0,0,0,0,4.1984,4.1985,4.2,4.2002,4.2072,4.2072,4.2166,4.2167,0,0,0,0,0,0,0,0,0,0,0,4.1984,4.1985,4.1986,4.2002,4.2072,4.2072,4.2166,4.2111,0,0,0,0,0,0,0,0,0,0,4.2042,4.2032,4.1985,4.1986,4.2003,4.2072,4.2072,4.2108,4.2115,4.2138,0,4.2161,0,4.2166,4.2174,4.2174,0,0,0,4.1998,4.2027,4.2042,4.1986,4.2003,4.2071,4.2039,4.2112,4.2119,4.2146,4.2162,4.2165,4.2167,4.2175,4.2175,4.2326,4.2327,0,0,4.1994,4.1999,4.2037,4.2047,4.2038,4.2037,4.2041,4.2116,4.2133,4.2162,4.2167,4.2169,4.2175,4.2176,4.2326,4.2327,0,0,0,4.1986,4.1996,4.2009,4.2043,4.2056,4.2039,4.2044,4.213,4.2134,4.2168,4.217,4.2176,4.2177,4.2325,4.2326,4.2377,0,0,0,4.1983,4.1991,4.2008,4.2011,4.2054,4.2094,4.2056,4.2128,4.2137,4.2169,4.2176,4.2178,4.2324,4.2325,4.2373,4.24,0,0,0,4.1978,4.1991,4.2003,4.2011,4.2042,4.2092,4.2101,4.213,4.2138,4.2175,4.2179,4.2323,4.2325,4.237,4.2395,4.2443,0,0,0,4.1973,4.2044,4.2003,4.2084,4.2041,4.2124,4.21,4.2161,4.2198,4.2177,4.2324,4.2326,4.2369,4.2392,4.244,4.2486,4.2505,0,0,4.2066,4.2056,4.2103,4.2068,4.216,4.2112,4.2211,4.2239,4.2237,4.2296,4.23,4.2375,4.2395,4.2443,4.2608,4.2624,0,0,0,4.2134,4.2168,4.2191,4.2228,4.2253,4.2277,4.229,4.2301,4.2352,4.2269,4.2404,4.2416,4.2443,4.2465,4.2478,4.2503,4.2336,4.2336,4.2335,4.2271,4.2267,4.2345,4.235,4.2386,4.24,4.2429,4.2445,4.2428,4.246,4.2478,4.258,4.2606,4.2615,4.2641,4.2501,4.2501,4.2501,4.2501,4.2408,4.2457,4.2435,4.2503,4.2498,4.2554,4.257,4.2556,4.2608,4.2565,4.2589,4.2545,4.2632,4.2654,4.2505,4.2504,4.2504,4.2503,4.2503,4.25,4.2522,4.2536,4.259,4.2632,4.2633,4.2685,4.2677,4.2669,4.2693,4.2713,4.2712,4.2712,4.2703,4.2703,4.2704,4.2704,4.2704,4.2704,4.259,4.2603,4.2649,4.2683,4.2707,4.2737,4.2752,4.2775,4.2798,4.2788,4.2788,4.2769,4.2641,4.2611,4.271,4.2709,4.2708,4.2708,4.2707,4.2733,4.27,4.2771,4.2795,4.2835,4.2878,4.2868,4.2915,4.2932,4.2958,4.2934,4.284,4.2829,4.2818,4.2793,4.2933,4.2933,4.2933,4.2933,4.2812,4.2806,4.2877,4.2917,4.2954,4.2952,4.3032,4.3045,4.3052,4.3063,4.3041,4.3006,4.2995,4.299,4.2976,4.2952,4.313,4.313,4.3131,4.2901,4.2898,4.2968,4.2978,4.3008,4.3035,4.311,4.3155,4.3156,4.3138,4.3071,4.3063,4.3006,4.2988,4.2969,4.2947,4.2904,0,0]}]]